Weather History for KBWI - September, 2012

Change the Weather History Date:

Thursday, September 20, 2012

  Actual Average Record
Temperature  
Mean Temperature 61 °F 66 °F  
Max Temperature 73 °F 76 °F 92 °F (1983)
Min Temperature 49 °F 56 °F 42 °F (1956)
Degree Days  
Heating Degree Days 4 2  
Month to date heating degree days 8 16  
Since 1 July heating degree days 8 17  
Cooling Degree Days 0 3  
Month to date cooling degree days 141 111  
Year to date cooling degree days 1512 1121  
Growing Degree Days 10 (Base 50)    
Moisture  
Dew Point 50 °F    
Average Humidity 70    
Maximum Humidity 96    
Minimum Humidity 44    
Precipitation  
Precipitation 0.00 in 0.14 in 1.75 in (1966)
Month to date precipitation 1.87 2.61  
Year to date precipitation 24.34 30.46  
Snow  
Snow 0.00 in 0.00 in - ()
Month to date snowfall 0.0 0.0  
Since 1 July snowfall 0.0 0.0  
Snow Depth 0.00 in    
Sea Level Pressure  
Sea Level Pressure 30.13 in    
Wind  
Wind Speed 2 mph (ESE)    
Max Wind Speed 10 mph    
Max Gust Speed 13 mph    
Visibility 10 miles    
Events      
T = Trace of Precipitation, MM = Missing Value Source: NWS Daily Summary

Daily Weather History Graph

Daily Weather History Graph

Search for Another Location

Airport or City:

Trip Planner

Search our weather history database for the weather conditions in past years. The results will help you decide how hot, cold, wet, or windy it might be!

Date:

Astronomy

Sep. 20, 2012 Rise Set
Actual Time 6:53 AM EDT 7:06 PM EDT
Civil Twilight 6:26 AM EDT 7:32 PM EDT
Nautical Twilight 5:54 AM EDT 8:04 PM EDT
Astronomical Twilight 5:23 AM EDT 8:36 PM EDT
Moon 12:06 PM EDT (9/20) 10:08 PM EDT (9/20)
Length of Visible Light 13h 06m
Length of Day
12h 13m
Waxing Crescent, 26% of the Moon is Illuminated
Sep 20
Waxing Crescent
Sep 22
First Quarter
Sep 29
Full
Oct 8
Last Quarter
Oct 15
New

Hourly Weather History & Observations

Time (EDT) Temp. Dew Point Humidity Pressure Visibility Wind Dir Wind Speed Gust Speed Precip Events Conditions
12:54 AM 52.0 °F 50.0 °F 93% 30.16 in 10.0 mi Calm Calm - N/A   Mostly Cloudy
1:54 AM 52.0 °F 48.9 °F 89% 30.17 in 10.0 mi Calm Calm - N/A   Scattered Clouds
2:54 AM 51.1 °F 48.0 °F 89% 30.16 in 10.0 mi Calm Calm - N/A   Partly Cloudy
3:54 AM 50.0 °F 48.0 °F 93% 30.16 in 10.0 mi Calm Calm - N/A   Scattered Clouds
4:54 AM 50.0 °F 46.9 °F 89% 30.16 in 10.0 mi Calm Calm - N/A   Scattered Clouds
5:54 AM 48.2 °F 46.4 °F 93% 30.17 in 10.0 mi Calm Calm - N/A   Scattered Clouds
6:54 AM 50.0 °F 46.9 °F 89% 30.18 in 10.0 mi Calm Calm - N/A   Scattered Clouds
7:54 AM 52.0 °F 48.0 °F 86% 30.18 in 10.0 mi Calm Calm - N/A   Scattered Clouds
8:54 AM 60.8 °F 51.8 °F 72% 30.18 in 10.0 mi East 3.5 mph - N/A   Scattered Clouds
9:54 AM 64.0 °F 52.0 °F 65% 30.18 in 10.0 mi East 6.9 mph - N/A   Mostly Cloudy
10:54 AM 66.9 °F 51.1 °F 57% 30.17 in 10.0 mi ENE 4.6 mph - N/A   Mostly Cloudy
11:54 AM 70.0 °F 46.0 °F 42% 30.16 in 10.0 mi Calm Calm - N/A   Mostly Cloudy
12:54 PM 72.0 °F 48.0 °F 43% 30.14 in 10.0 mi Calm Calm - N/A   Mostly Cloudy
1:54 PM 72.0 °F 51.1 °F 48% 30.11 in 10.0 mi SSE 5.8 mph - N/A   Mostly Cloudy
2:54 PM 71.1 °F 48.9 °F 45% 30.09 in 10.0 mi Calm Calm - N/A   Mostly Cloudy
3:54 PM 71.6 °F 50.0 °F 46% 30.08 in 10.0 mi ESE 5.8 mph - N/A   Scattered Clouds
4:54 PM 71.1 °F 50.0 °F 47% 30.08 in 10.0 mi ESE 6.9 mph - N/A   Scattered Clouds
5:54 PM 71.1 °F 50.0 °F 47% 30.08 in 10.0 mi SSE 6.9 mph - N/A   Mostly Cloudy
6:54 PM 68.0 °F 52.0 °F 56% 30.08 in 10.0 mi SE 3.5 mph - N/A   Scattered Clouds
7:54 PM 63.0 °F 54.0 °F 72% 30.08 in 10.0 mi Calm Calm - N/A   Scattered Clouds
8:54 PM 60.1 °F 55.0 °F 83% 30.09 in 10.0 mi Calm Calm - N/A   Scattered Clouds
9:54 PM 59.0 °F 54.0 °F 83% 30.09 in 10.0 mi Calm Calm - N/A   Mostly Cloudy
10:54 PM 57.9 °F 55.0 °F 90% 30.09 in 10.0 mi Calm Calm - N/A   Mostly Cloudy
11:54 PM 57.9 °F 54.0 °F 87% 30.09 in 10.0 mi Calm Calm - N/A   Mostly Cloudy